Location: Antin
(43.3330°N, 0.2804°E)
Time: 03:32:20
(UTC+00:00)

Cosmos 405 Rocket - Pass Details

Date: 16 October 2021
Orbit: 488 x 551 km, 81.3° (Epoch: 02 December)

Event Time Altitude Azimuth Distance (km) Brightness Sun altitude
Rises 18:31:28 0° 354° (N) 2,670 6.4 -14.8°
Reaches altitude 10° 18:33:39 10° 358° (N) 1,787 5.5 -15.2°
Maximum altitude 18:37:31 57° 78° (ENE) 641 2.8 -15.9°
Drops below altitude 10° 18:41:26 10° 157° (SSE) 1,805 5.2 -16.6°
Enters shadow 18:41:50 - 159° (SSE) 1,967 5.4 -16.7°
